Location: Igri�s
(42.2144°N, 0.4320°W)
Time: 18:12:57
(UTC+00:00)

Cosmos 1954 Rocket - Pass Details

Date: 13 August 2020
Orbit: 752 x 781 km, 74.0° (Epoch: 17 September)

Event Time Altitude Azimuth Distance (km) Brightness Sun altitude
Rises 20:18:15 0° 195° (SSW) 3,247 7.1 -12.9°
Reaches altitude 10° 20:20:37 10° 194° (SSW) 2,325 6.3 -13.3°
Maximum altitude 20:25:55 80° 108° (ESE) 797 4.0 -14.1°
Drops below altitude 10° 20:31:14 10° 22° (NNE) 2,342 6.7 -14.9°
Sets 20:33:38 0° 21° (NNE) 3,272 7.5 -15.3°
